DO8TBO-15 Weather Reports


Display with metric or nautical units.
time (UTC)temp
F
wind
direction
speed
MPH
gust
MPH
rain 1hr
in
rain 24hr
in
rain mn
in
humidity
%
barometer
mb
20260504044613 55 0.0 0.0 0.00 0.00 0.00 1014.0
20260504042605 54 0.0 0.0 0.00 0.00 0.00 1013.9
20260504041601 54 0.0 0.0 0.00 0.00 0.00 1013.8
20260504040558 54 0.0 0.0 0.00 0.00 0.00 1013.9
20260504035554 54 0.0 0.0 0.00 0.00 0.00 1013.8
20260504034550 54 0.0 0.0 0.00 0.00 0.00 1013.6
20260504033546 54 0.0 2.0 0.00 0.00 0.00 1013.7
20260504032543 54 0.0 0.0 0.00 0.00 0.00 1013.6
20260504031539 55 0.0 0.0 0.00 0.00 0.00 1013.7
20260504030536 55 0.0 0.0 0.00 0.00 0.00 1013.8
20260504025532 55 0.0 0.0 0.00 0.00 0.00 1013.8
20260504024558 55 0.0 0.0 0.00 0.00 0.00 1013.8
20260504023554 56 0.0 0.0 0.00 0.00 0.00 1013.7
20260504022551 56 0.0 0.0 0.00 0.00 0.00 1013.7
20260504021547 56 0.0 0.0 0.00 0.00 0.00 1013.6
20260504020543 55 0.0 0.0 0.00 0.00 0.00 1013.7
20260504015539 56 0.0 0.0 0.00 0.00 0.00 1013.8
20260504014535 56 0.0 0.0 0.00 0.00 0.00 1013.8
20260504013531 56 0.0 0.0 0.00 0.00 0.00 1013.9
20260504012558 57 0.0 0.0 0.00 0.00 0.00 1013.8
20260504011555 57 0.0 0.0 0.00 0.00 0.00 1013.8
20260504010551 58 0.0 0.0 0.00 0.00 0.00 1013.8
20260504005547 58 0.0 0.0 0.00 0.00 0.00 1013.7
20260504004544 58 0.0 0.0 0.00 0.00 0.00 1013.8
20260504003539 60 0.0 0.0 0.00 0.00 0.00 1013.9
20260504002536 61 0.0 0.0 0.00 0.00 0.00 1013.9
20260504001532 62 0.0 0.0 0.00 0.00 0.00 1013.8
20260504000529 63 0.0 1.0 0.00 0.00 0.00 1013.6
20260503235525 63 286 1.0 4.0 0.00 0.00 0.00 1013.6
20260503234521 63 264 1.0 4.0 0.00 0.00 0.00 1013.6
20260503233518 63 287 1.0 6.0 0.00 0.00 0.00 1013.6
20260503232614 63 79 1.0 5.0 0.00 0.00 0.00 1013.6
20260503231610 63 240 2.0 8.0 0.00 0.00 0.00 1013.8
20260503230607 61 180 1.0 2.0 0.00 0.00 0.00 1013.6
20260503225602 62 180 0.0 2.0 0.00 0.00 0.00 1013.4
20260503224559 63 0.0 2.0 0.00 0.00 0.00 1013.1
20260503223556 62 198 0.0 4.0 0.00 0.00 0.00 1013.2
20260503222551 60 203 0.0 3.0 0.00 0.00 0.00 1013.4
20260503221547 59 0.0 1.0 0.00 0.00 0.00 1013.5
20260503220543 58 0.0 0.0 0.00 0.00 0.00 1013.3
20260503215539 58 0.0 0.0 0.00 0.00 0.00 1013.3
20260503214536 58 0.0 0.0 0.00 0.00 0.00 1013.1
20260503213532 58 0.0 0.0 0.00 0.00 0.00 1013.0
20260503212559 59 0.0 0.0 0.00 0.00 0.00 1012.9
20260503211555 60 0.0 0.0 0.00 0.00 0.00 1012.8
20260503210550 60 0.0 0.0 0.00 0.00 0.00 1012.8
20260503205547 60 0.0 0.0 0.00 0.00 0.00 1012.6
20260503204543 60 0.0 0.0 0.00 0.00 0.00 1012.5
20260503203539 60 0.0 0.0 0.00 0.00 0.00 1012.3
20260503202535 60 0.0 0.0 0.00 0.00 0.00 1012.3
20260503201532 60 0.0 0.0 0.00 0.00 0.00 1012.2
20260503200558 61 0.0 0.0 0.00 0.00 0.00 1012.2
20260503195554 61 0.0 0.0 0.00 0.00 0.00 1012.0
20260503194551 63 0.0 0.0 0.00 0.00 0.00 1011.9
20260503193547 63 0.0 0.0 0.00 0.00 0.00 1011.9
20260503192543 64 0.0 0.0 0.00 0.00 0.00 1011.9
20260503191539 64 0.0 0.0 0.00 0.00 0.00 1011.9
20260503190535 65 0.0 0.0 0.00 0.00 0.00 1011.9
20260503184527 68 0.0 0.0 0.00 0.00 0.00 1011.7
20260503183524 69 0.0 0.0 0.00 0.00 0.00 1011.6
20260503182521 70 0.0 0.0 0.00 0.00 0.00 1011.5
20260503181516 71 0.0 0.0 0.00 0.00 0.00 1011.4
20260503180613 72 0.0 0.0 0.00 0.00 0.00 1011.4
20260503175609 73 0.0 0.0 0.00 0.00 0.00 1011.3
20260503174605 74 0.0 0.0 0.00 0.00 0.00 1011.3
20260503173602 75 0.0 0.0 0.00 0.00 0.00 1011.3
20260503172557 74 0.0 0.0 0.00 0.00 0.00 1011.3
20260503171554 74 0.0 0.0 0.00 0.00 0.00 1011.4
20260503170550 74 0.0 0.0 0.00 0.00 0.00 1011.4
20260503150535 80 0 2.0 5.0 0.00 0.00 0.00 1011.9
20260503130549 83 180 1.0 2.0 0.00 0.00 0.00 1012.9
20260503110534 78 225 2.0 4.0 0.00 0.00 0.00 1014.0
20260503081559 70 180 0.0 4.0 0.00 0.00 0.00 1015.5
20260503080555 71 180 1.0 2.0 0.00 0.00 0.00 1015.5
20260503072540 65 180 0.0 3.0 0.00 0.00 0.00 1015.5
20260503071537 63 180 0.0 2.0 0.00 0.00 0.00 1015.6
20260503070532 62 0.0 0.0 0.00 0.00 0.00 1015.6
20260503054603 52 0.0 2.0 0.00 0.00 0.00 1015.6
20260503053559 51 0.0 2.0 0.00 0.00 0.00 1015.7
20260503052555 49 315 0.0 2.0 0.00 0.00 0.00 1015.6
20260503051551 48 0.0 0.0 0.00 0.00 0.00 1015.5
20260503050547 46 0.0 0.0 0.00 0.00 0.00 1015.5
20260503045544 46 0.0 0.0 0.00 0.00 0.00 1015.4